TimeCDT,TemperatureF,Dew PointF,Humidity,Sea Level PressureIn,VisibilityMPH,Wind Direction,Wind SpeedMPH,Gust SpeedMPH,PrecipitationIn,Events,Conditions,WindDirDegrees,DateUTC
12:53 AM,55.9,39.0,53,30.25,10.0,Calm,Calm,-,N/A,,Clear,0,2012-09-15 05:53:00
2:53 AM,51.1,41.0,68,30.24,10.0,WNW,6.9,-,N/A,,Clear,290,2012-09-15 07:53:00
3:53 AM,48.9,39.9,71,30.22,10.0,Calm,Calm,-,N/A,,Clear,0,2012-09-15 08:53:00
4:53 AM,46.0,39.0,76,30.23,10.0,WNW,5.8,-,N/A,,Clear,290,2012-09-15 09:53:00
5:53 AM,45.0,39.0,80,30.22,10.0,Calm,Calm,-,N/A,,Clear,0,2012-09-15 10:53:00
6:53 AM,44.1,37.9,79,30.23,10.0,Calm,Calm,-,N/A,,Clear,0,2012-09-15 11:53:00
7:53 AM,45.0,37.9,76,30.23,10.0,Calm,Calm,-,N/A,,Clear,0,2012-09-15 12:53:00
8:53 AM,51.1,39.9,66,30.21,10.0,Calm,Calm,-,N/A,,Clear,0,2012-09-15 13:53:00
9:53 AM,59.0,41.0,51,30.20,10.0,Calm,Calm,-,N/A,,Clear,0,2012-09-15 14:53:00
10:53 AM,64.9,35.1,33,30.18,10.0,Calm,Calm,-,N/A,,Clear,0,2012-09-15 15:53:00
11:53 AM,69.1,34.0,27,30.17,10.0,Calm,Calm,-,N/A,,Clear,0,2012-09-15 16:53:00
12:53 PM,72.0,30.0,21,30.14,10.0,NE,3.5,-,N/A,,Clear,50,2012-09-15 17:53:00
1:53 PM,73.9,35.1,24,30.12,10.0,ENE,4.6,-,N/A,,Clear,70,2012-09-15 18:53:00
2:53 PM,75.9,37.0,24,30.09,10.0,Variable,4.6,-,N/A,,Clear,0,2012-09-15 19:53:00
3:53 PM,78.1,37.9,24,30.07,10.0,Variable,4.6,-,N/A,,Clear,0,2012-09-15 20:53:00
4:53 PM,77.0,39.9,26,30.05,10.0,Calm,Calm,-,N/A,,Clear,0,2012-09-15 21:53:00
5:53 PM,78.1,39.0,25,30.03,10.0,Calm,Calm,-,N/A,,Clear,0,2012-09-15 22:53:00
6:53 PM,77.0,39.9,26,30.03,10.0,SE,4.6,-,N/A,,Clear,140,2012-09-15 23:53:00
7:53 PM,73.0,42.1,33,30.04,10.0,SE,4.6,-,N/A,,Clear,130,2012-09-16 00:53:00
8:53 PM,66.9,45.0,45,30.05,10.0,SSE,5.8,-,N/A,,Clear,150,2012-09-16 01:53:00
9:53 PM,64.0,44.1,48,30.04,10.0,SSE,5.8,-,N/A,,Clear,160,2012-09-16 02:53:00
10:53 PM,57.9,45.0,62,30.05,10.0,SSW,5.8,-,N/A,,Clear,210,2012-09-16 03:53:00
11:53 PM,54.0,45.0,72,30.04,10.0,SSW,6.9,-,N/A,,Clear,210,2012-09-16 04:53:00